Weather History for Green Bay, WI

Change the Weather History Date:

Saturday, December 29, 2012

  Actual Average Record
Temperature  
Mean Temperature 25 °F 18 °F  
Max Temperature 29 °F 25 °F 50 °F (1984)
Min Temperature 20 °F 11 °F -17 °F (1976)
Degree Days  
Heating Degree Days 40 47  
Month to date heating degree days 1019 1256  
Since 1 July heating degree days 2652 2996  
Cooling Degree Days 0 0  
Month to date cooling degree days 0 0  
Year to date cooling degree days 786 398  
Moisture  
Dew Point 21 °F    
Average Humidity 84    
Maximum Humidity 92    
Minimum Humidity 75    
Precipitation  
Precipitation 0.15 in 0.04 in 0.40 in (1972)
Month to date precipitation 2.54 1.43  
Year to date precipitation 31.53 29.44  
Snow  
Snow 2.50 in 0.40 in 5.10 in (1978)
Month to date snowfall 22.8 12.3  
Since 1 July snowfall 24.3 16.5  
Snow Depth 12.00 in    
Sea Level Pressure  
Sea Level Pressure 29.98 in    
Wind  
Wind Speed 10 mph (NNW)    
Max Wind Speed 18 mph    
Max Gust Speed 22 mph    
Visibility 4 miles    
Events Snow    
T = Trace of Precipitation, MM = Missing Value Source: NWS Daily Summary

Daily Weather History Graph

Daily Weather History Graph

Search for Another Location

Airport:

Trip Planner

Search our weather history database for the weather conditions in past years. The results will help you decide how hot, cold, wet, or windy it might be!

Date:

Astronomy

Dec. 29, 2012 Rise Set
Actual Time 7:28 AM CST 4:21 PM CST
Civil Twilight 6:55 AM CST 4:54 PM CST
Nautical Twilight 6:18 AM CST 5:31 PM CST
Astronomical Twilight 5:43 AM CST 6:06 PM CST
Moon 5:58 PM CST (12/29) 7:58 AM CST (12/29)
Length of Visible Light 9h 59m
Length of Day
8h 52m
Full, 98% of the Moon is Illuminated
Dec 29
Full
Jan 4
Last Quarter
Jan 11
New
Jan 18
First Quarter
Jan 26
Full

Hourly Weather History & Observations

Time (CST) Temp. Windchill Dew Point Humidity Pressure Visibility Wind Dir Wind Speed Gust Speed Precip Events Conditions
12:53 AM 28.0 °F 15.7 °F 25.0 °F 88% 29.93 in 3.0 mi NE 17.3 mph - 0.02 in Snow Light Snow
1:11 AM 28.0 °F 15.7 °F 26.1 °F 92% 29.89 in 3.0 mi NE 17.3 mph - 0.00 in Snow Light Snow
1:20 AM 28.0 °F 17.0 °F 26.1 °F 92% 29.89 in 2.5 mi NE 13.8 mph - 0.00 in Snow Light Snow
1:53 AM 28.9 °F 18.6 °F 26.1 °F 89% 29.93 in 1.8 mi NE 12.7 mph - 0.00 in Snow Light Snow
2:53 AM 28.0 °F 18.1 °F 25.0 °F 88% 29.93 in 1.2 mi NE 11.5 mph - 0.03 in Snow Light Snow
3:05 AM 27.0 °F 16.7 °F 25.0 °F 92% 29.90 in 1.0 mi NE 11.5 mph - 0.00 in Snow Light Snow
3:48 AM 26.6 °F 15.7 °F 24.8 °F 93% 29.89 in 1.2 mi NE 12.7 mph - 0.01 in Snow Light Snow
3:53 AM 27.0 °F 15.6 °F 25.0 °F 92% 29.93 in 1.2 mi NE 13.8 mph - 0.01 in Snow Light Snow
4:51 AM 26.6 °F 16.2 °F 23.0 °F 86% 29.90 in 1.5 mi NNE 11.5 mph - 0.01 in Snow Light Snow
4:53 AM 26.1 °F 15.6 °F 23.0 °F 88% 29.93 in 1.5 mi NNE 11.5 mph - 0.01 in Snow Light Snow
5:12 AM 26.1 °F 16.2 °F 23.0 °F 88% 29.90 in 1.0 mi North 10.4 mph - 0.00 in Snow Light Snow
5:53 AM 25.0 °F 14.2 °F 21.9 °F 88% 29.95 in 1.5 mi NNE 11.5 mph - 0.00 in Snow Light Snow
6:17 AM 25.0 °F 14.2 °F 21.9 °F 88% 29.91 in 2.0 mi NNE 11.5 mph - 0.00 in Snow Light Snow
6:53 AM 24.1 °F 12.5 °F 21.0 °F 88% 29.95 in 2.0 mi NNE 12.7 mph - 0.00 in Snow Light Snow
7:39 AM 24.1 °F 12.5 °F 19.9 °F 84% 29.92 in 1.5 mi North 12.7 mph - 0.00 in Snow Light Snow
7:46 AM 24.1 °F 13.1 °F 19.9 °F 84% 29.92 in 1.2 mi North 11.5 mph - 0.00 in Snow Light Snow
7:53 AM 24.1 °F 13.1 °F 19.9 °F 84% 29.96 in 1.5 mi North 11.5 mph - 0.00 in Snow Light Snow
8:31 AM 24.1 °F 13.1 °F 19.9 °F 84% 29.93 in 1.2 mi North 11.5 mph - 0.00 in Snow Light Snow
8:53 AM 24.1 °F 13.1 °F 19.9 °F 84% 29.97 in 1.2 mi North 11.5 mph - 0.01 in Snow Light Snow
9:46 AM 24.1 °F 13.1 °F 19.9 °F 84% 29.95 in 2.0 mi North 11.5 mph - 0.00 in Snow Light Snow
9:53 AM 25.0 °F 14.2 °F 19.9 °F 81% 29.98 in 2.5 mi North 11.5 mph - 0.00 in Snow Light Snow
9:59 AM 25.0 °F 14.8 °F 19.9 °F 81% 29.95 in 3.0 mi NNE 10.4 mph - 0.00 in Snow Light Snow
10:53 AM 26.1 °F 17.6 °F 19.9 °F 78% 29.98 in 10.0 mi North 8.1 mph - 0.00 in   Overcast
11:53 AM 27.0 °F 18.0 °F 21.0 °F 78% 29.98 in 10.0 mi North 9.2 mph - N/A   Overcast
12:53 PM 26.1 °F 17.6 °F 19.9 °F 78% 29.97 in 8.0 mi NW 8.1 mph - N/A   Mostly Cloudy
1:53 PM 27.0 °F 18.7 °F 19.9 °F 75% 29.98 in 9.0 mi NW 8.1 mph - N/A   Overcast
2:53 PM 27.0 °F 17.3 °F 19.9 °F 75% 30.00 in 3.0 mi NW 10.4 mph - 0.00 in Snow Light Snow
3:03 PM 26.1 °F 16.8 °F 21.0 °F 81% 29.98 in 1.8 mi NW 9.2 mph - 0.00 in Snow Light Snow
3:12 PM 26.1 °F 16.8 °F 21.0 °F 81% 29.98 in 1.5 mi NW 9.2 mph - 0.00 in Snow Light Snow
3:23 PM 26.1 °F 19.4 °F 21.0 °F 81% 29.99 in 2.0 mi WNW 5.8 mph - 0.00 in Snow Light Snow
3:35 PM 26.1 °F 18.4 °F 21.0 °F 81% 29.99 in 2.0 mi WNW 6.9 mph - 0.00 in Snow Light Snow
3:53 PM 26.1 °F 19.4 °F 21.9 °F 84% 30.03 in 2.5 mi West 5.8 mph - 0.00 in Snow Light Snow
4:07 PM 26.1 °F 20.5 °F 21.9 °F 84% 30.00 in 1.5 mi West 4.6 mph - 0.00 in Snow Light Snow
4:24 PM 25.0 °F 18.1 °F 21.9 °F 88% 30.01 in 3.0 mi West 5.8 mph - 0.00 in Snow Light Snow
4:53 PM 23.0 °F 17.0 °F 19.9 °F 88% 30.05 in 9.0 mi WSW 4.6 mph - 0.00 in   Overcast
5:43 PM 23.0 °F 17.0 °F 19.9 °F 88% 30.02 in 10.0 mi WSW 4.6 mph - N/A   Overcast
5:53 PM 24.1 °F 18.2 °F 21.0 °F 88% 30.06 in 10.0 mi WSW 4.6 mph - N/A   Overcast
6:53 PM 25.0 °F 14.2 °F 19.9 °F 81% 30.07 in 10.0 mi West 11.5 mph - N/A   Overcast
7:53 PM 23.0 °F 9.6 °F 17.1 °F 78% 30.10 in 10.0 mi West 16.1 mph - N/A   Overcast
8:53 PM 21.9 °F 11.0 °F 16.0 °F 78% 30.12 in 10.0 mi West 10.4 mph - N/A   Overcast
9:53 PM 21.9 °F 11.7 °F 15.1 °F 75% 30.13 in 10.0 mi West 9.2 mph - N/A   Overcast
10:53 PM 19.9 °F 7.3 °F 14.0 °F 78% 30.15 in 10.0 mi WSW 12.7 mph - N/A   Overcast
11:53 PM 19.9 °F 7.9 °F 14.0 °F 78% 30.16 in 10.0 mi West 11.5 mph - N/A   Overcast